Regional Weather Roundup
Issued by NWS New Orleans/Baton Rouge, LA

Home | Current Version | Previous Version | Text Only | Print | Product List | Glossary Off
Versions: 1 2 3 4 5 6 7 8 9 10 11 12 13 14 15 16 17 18 19 20 21 22 23 24 25 26 27 28 29 30 31 32 33 34 35 36 37 38 39 40 41 42 43 44 45 46 47 48 49 50

160
ASUS44 KLIX 300405
RWRLIX
NEW ORLEANS REGIONAL WEATHER ROUNDUP
NATIONAL WEATHER SERVICE NEW ORLEANS LA
1100 PM CDT TUE JUL 29 2014

NOTE: "FAIR" INDICATES FEW OR NO CLOUDS BELOW 12,000 FEET WITH NO
      SIGNIFICANT WEATHER AND/OR OBSTRUCTIONS TO VISIBILITY.
      SKY/WX - SKY CONDITION AND SIGNIFICANT WEATHER.
      TMP - AIR TEMPERATURE.     DP    - DEWPOINT TEMPERATURE.
      RH  - RELATIVE HUMIDITY.   PRES  - PRESSURE.
      HI  - HEAT INDEX.          WCI   - WIND CHILL INDEX.

*  THESE STATIONS ARE NOT NWS OR FAA STATIONS AND ARE NOT UNDER
   NWS QUALITY CONTROL.

LAZ038-040-048-061>063-065>067-069-300500-
SOUTHEAST LOUISIANA

CITY           SKY/WX    TMP DP  RH WIND       PRES   REMARKS
N.O. AUDUBON     N/A     81  67  61 MISG        N/A
N.O. INTL ARPT PTCLDY    81  64  56 N5        30.04R
N.O. LAKEFRONT CLEAR     84  65  52 N9        30.04R
N.O. DOWNTOWN*   N/A     84  63  48 N3        30.04R
SLIDELL        PTCLDY    74  68  81 NW3       30.04R
BATON ROUGE    CLEAR     75  68  78 CALM      30.05R
BOOTHVILLE     CLEAR     78  70  76 W6        30.05R
BELLE CHASSE   MOCLDY    73  68  84 S3        30.03R
BOGALUSA*        N/A     74  67  78 CALM      30.06R
GALLIANO*      NOT AVBL
NEW ROADS*       N/A     74  69  84 N5        30.05R
GONZALES*        N/A     72  72  99 CALM      30.04R
HAMMOND*       CLEAR     77  66  69 N5        30.06R
HOUMA*         CLEAR     73  67  82 CALM      30.04S
PORT FOURCHON* CLEAR     82  70  65 N5        30.05S

$$

MSZ070-080>082-300500-
SOUTHERN MISSISSIPPI

CITY           SKY/WX    TMP DP  RH WIND       PRES   REMARKS
MCCOMB         CLEAR     76  64  66 N6        30.07R
GULFPORT       MOCLDY    82  66  58 N6        30.02R
BILOXI         CLEAR     79  67  67 VRB2      30.02R
PASCAGOULA     CLOUDY    75  71  87 CALM      30.02R

$$

COASTAL OBSERVATIONS
LAKE AND NEARSHORE STATIONS

STATION/POSITION TIME  TEMP    WIND        PRES    WAVE
                       AIR SEA DIR/SP/G            HT/PER
                 (UTC) (F)     (DEG/KT/KT) (MB)    (FT/S)
PASCAGOULA       0400   80      10/  3/  5 1016.1
WAVELAND YACHT   0400   79     340/  7/ 10 1016.3
GRAND ISLE       0400   84 87  360/  5/  9 1017.9
SOUTHWEST PASS   0400   83 85  350/  3/  5 1017.7
NEW CANAL        0400   85 85  350/  7/  8 1017.4
SHELL BEACH      0400   85 82  340/  9/ 10 1016.8

OFFSHORE STATIONS

STATION/POSITION TIME  TEMP    WIND        PRES    WAVE
                       AIR SEA DIR/SP/G            HT/PER
                 (UTC) (F)     (DEG/KT/KT) (MB)    (FT/S)
64 S DAUPHIN ISL 0346   83 86  320/  8/ 10 1016.9

$$




USA.gov is the U.S. government's official web portal to all federal, state and local government web resources and services.